Date String (YYYY-MM-DD hh:mm:ss) UTC,Instrument flags,absolute air pressure of the measurement (hPa),sample flow rate (lpm),inlet stack bypass flow (lpm),air temperature of the measurement (°C),ambient temperature measured by the external sensor (°C),aerosol sample conditioner tube jacket temperature (°C),OPC LED temperature (°C),internal box temperature (°C),relative humidity of the measurement (%),span deviation,mass concentration of particles derived from Lorenz-Mie calculation of OPC scattering (μg/m³),mass concentration of particles derived from Lorenz-Mie calculation of OPC scattering (μg/m³),mass concentration of particles derived from Lorenz-Mie calculation of OPC scattering (μg/m³)
DateTimeUTC,F1_M11,P_M11,Q1_M11,Q2_M11,T1_M11,T2_M11,T3_M11,T4_M11,T5_M11,U1_M11,ZSPAN_M11,X2_M11,X0_M11,X1_M11
2024-05-22 10:00:00,SystemResetWarning,0828.8,5.01,000.00,023.8,022.9,000.0,032.3,025.5,011.5,0000.0,0001.86,0004.95,0001.62
2024-05-22 10:01:00,SystemResetWarning,0828.9,4.99,000.00,023.8,022.8,000.0,032.3,025.5,011.6,0000.0,0001.85,0004.92,0001.63
2024-05-22 10:02:00,SystemResetWarning,0828.9,4.99,000.00,023.8,022.8,000.0,032.3,025.4,011.7,0000.0,0001.84,0004.88,0001.63
2024-05-22 10:03:00,SystemResetWarning,0828.9,5.00,000.00,023.7,022.8,000.0,032.2,025.4,011.8,0000.0,0001.86,0005.01,0001.65
2024-05-22 10:04:00,SystemResetWarning,0828.9,4.99,000.00,023.7,022.8,000.0,032.2,025.4,011.8,0000.0,0001.85,0004.96,0001.66
2024-05-22 10:05:00,SystemResetWarning,0829.0,5.01,000.00,023.7,022.8,000.0,032.2,025.4,011.8,0000.0,0001.87,0005.04,0001.67
2024-05-22 10:06:00,SystemResetWarning,0829.0,5.02,000.00,023.7,022.8,000.0,032.2,025.4,011.7,0000.0,0001.91,0003.85,0001.68
2024-05-22 10:07:00,SystemResetWarning,0829.0,5.00,000.00,023.7,022.7,000.0,032.2,025.3,011.7,0000.0,0001.92,0003.46,0001.68
2024-05-22 10:08:00,SystemResetWarning,0828.9,4.99,000.00,023.7,022.7,000.0,032.2,025.3,011.7,0000.0,0001.90,0002.90,0001.67
2024-05-22 10:09:00,SystemResetWarning,0829.0,4.99,000.00,023.6,022.7,000.0,032.2,025.3,011.7,0000.0,0001.96,0002.57,0001.68
2024-05-22 10:10:00,SystemResetWarning,0829.0,5.01,000.00,023.6,022.7,000.0,032.1,025.3,011.7,0000.0,0001.99,0002.69,0001.68
2024-05-22 10:11:00,SystemResetWarning,0829.0,5.01,000.00,023.6,022.7,000.0,032.1,025.3,011.7,0000.0,0001.98,0002.68,0001.67
2024-05-22 10:12:00,SystemResetWarning,0829.0,5.01,000.00,023.6,022.7,000.0,032.1,025.3,011.8,0000.0,0001.98,0002.83,0001.66
2024-05-22 10:13:00,SystemResetWarning,0828.9,4.99,000.00,023.6,022.7,000.0,032.1,025.3,011.6,0000.0,0002.01,0003.51,0001.66
2024-05-22 10:14:00,SystemResetWarning,0829.0,4.99,000.00,023.6,022.8,000.0,032.0,025.3,011.4,0000.0,0001.99,0003.41,0001.65
2024-05-22 10:15:00,SystemResetWarning,0829.0,5.00,000.00,023.6,022.8,000.0,032.0,025.3,011.5,0000.0,0001.99,0003.38,0001.65
2024-05-22 10:16:00,SystemResetWarning,0829.0,5.02,000.00,023.6,022.8,000.0,032.0,025.4,011.5,0000.0,0001.97,0003.33,0001.63
2024-05-22 10:17:00,SystemResetWarning,0829.0,5.00,000.00,023.6,022.8,000.0,032.0,025.4,011.5,0000.0,0001.94,0003.29,0001.62
2024-05-22 10:18:00,SystemResetWarning,0829.0,5.00,000.00,023.6,022.8,000.0,032.0,025.3,011.5,0000.0,0001.91,0003.77,0001.61
2024-05-22 10:19:00,SystemResetWarning,0829.0,4.99,000.00,023.6,022.8,000.0,032.0,025.3,011.6,0000.0,0001.90,0004.02,0001.62
2024-05-22 10:20:00,SystemResetWarning,0829.0,5.00,000.00,023.6,022.8,000.0,032.0,025.3,012.1,0000.0,0001.87,0004.24,0001.61
2024-05-22 10:21:00,SystemResetWarning,0829.0,5.00,000.00,023.6,022.8,000.0,032.0,025.3,012.3,0000.0,0001.82,0004.72,0001.60
2024-05-22 10:22:00,SystemResetWarning,0829.0,5.00,000.00,023.6,022.8,000.0,032.0,025.3,011.9,0000.0,0001.81,0004.73,0001.60
2024-05-22 10:23:00,SystemResetWarning,0828.9,5.01,000.00,023.6,022.8,000.0,032.0,025.4,012.5,0000.0,0001.83,0004.76,0001.61
2024-05-22 10:24:00,SystemResetWarning,0829.0,5.00,000.00,023.6,022.9,000.0,032.0,025.4,012.7,0000.0,0001.90,0004.51,0001.63
2024-05-22 10:25:00,SystemResetWarning,0829.0,5.00,000.00,023.6,022.9,000.0,032.0,025.4,012.9,0000.0,0001.95,0004.51,0001.65
2024-05-22 10:26:00,SystemResetWarning,0829.0,5.00,000.00,023.6,022.9,000.0,032.0,025.4,013.0,0000.0,0002.01,0005.54,0001.67
2024-05-22 10:27:00,SystemResetWarning,0829.1,5.00,000.00,023.6,022.9,000.0,031.9,025.4,012.9,0000.0,0002.11,0007.05,0001.69
2024-05-22 10:28:00,SystemResetWarning,0829.1,5.00,000.00,023.7,022.9,000.0,032.0,025.5,012.9,0000.0,0002.19,0008.07,0001.73
2024-05-22 10:29:00,SystemResetWarning,0829.1,4.99,000.00,023.7,022.9,000.0,031.9,025.4,012.8,0000.0,0002.30,0008.57,0001.75
2024-05-22 10:30:00,SystemResetWarning,0829.0,5.00,000.00,023.7,023.0,000.0,032.0,025.5,012.7,0000.0,0002.40,0008.76,0001.79
2024-05-22 10:31:00,SystemResetWarning,0829.0,5.00,000.00,023.7,023.0,000.0,031.9,025.5,012.6,0000.0,0002.49,0009.22,0001.80
2024-05-22 10:32:00,SystemResetWarning,0829.0,4.99,000.00,023.7,023.0,000.0,032.0,025.5,012.5,0000.0,0002.61,0009.10,0001.81
2024-05-22 10:33:00,SystemResetWarning,0829.0,5.00,000.00,023.7,023.0,000.0,032.0,025.5,012.5,0000.0,0002.70,0009.20,0001.84
2024-05-22 10:34:00,SystemResetWarning,0828.9,5.00,000.00,023.7,023.0,000.0,032.0,025.5,012.6,0000.0,0002.74,0009.23,0001.84
2024-05-22 10:35:00,SystemResetWarning,0828.9,5.01,000.00,023.7,023.0,000.0,032.0,025.5,012.6,0000.0,0002.72,0009.92,0001.85
2024-05-22 10:36:00,SystemResetWarning,0829.0,4.99,000.00,023.7,023.0,000.0,032.0,025.5,012.5,0000.0,0002.68,0009.87,0001.84
2024-05-22 10:37:00,SystemResetWarning,0829.1,5.01,000.00,023.7,023.0,000.0,032.0,025.5,012.6,0000.0,0002.64,0009.51,0001.82
2024-05-22 10:38:00,SystemResetWarning,0829.1,5.01,000.00,023.7,023.0,000.0,032.0,025.5,012.8,0000.0,0002.59,0009.62,0001.81
2024-05-22 10:39:00,SystemResetWarning,0829.1,4.99,000.00,023.7,023.0,000.0,032.0,025.5,012.8,0000.0,0002.61,0008.93,0001.82
2024-05-22 10:40:00,SystemResetWarning,0829.1,4.99,000.00,023.7,023.0,000.0,032.0,025.5,012.7,0000.0,0002.57,0008.41,0001.83
2024-05-22 10:41:00,SystemResetWarning,0829.1,5.00,000.00,023.7,023.0,000.0,032.0,025.5,012.4,0000.0,0002.60,0008.04,0001.82
2024-05-22 10:42:00,SystemResetWarning,0829.0,5.01,000.00,023.7,023.0,000.0,032.0,025.5,011.9,0000.0,0002.61,0007.93,0001.83
2024-05-22 10:43:00,SystemResetWarning,0829.0,5.00,000.00,023.7,023.0,000.0,032.0,025.5,011.9,0000.0,0002.53,0007.79,0001.83
2024-05-22 10:44:00,SystemResetWarning,0828.9,5.00,000.00,023.7,022.9,000.0,032.0,025.5,011.7,0000.0,0002.48,0008.37,0001.83
2024-05-22 10:45:00,SystemResetWarning,0829.0,4.99,000.00,023.7,022.9,000.0,032.0,025.5,011.7,0000.0,0002.46,0008.35,0001.83
2024-05-22 10:46:00,SystemResetWarning,0828.9,4.98,000.00,023.7,022.9,000.0,032.0,025.4,011.9,0000.0,0002.45,0008.08,0001.81
2024-05-22 10:47:00,SystemResetWarning,0829.0,5.00,000.00,023.6,022.8,000.0,032.0,025.4,012.1,0000.0,0002.43,0008.62,0001.81
2024-05-22 10:48:00,SystemResetWarning,0829.1,5.00,000.00,023.6,022.8,000.0,032.0,025.3,012.1,0000.0,0002.42,0008.65,0001.81
2024-05-22 10:49:00,SystemResetWarning,0828.9,5.00,000.00,023.6,022.8,000.0,032.0,025.3,011.7,0000.0,0002.42,0007.97,0001.80
2024-05-22 10:50:00,SystemResetWarning,0829.0,5.01,000.00,023.6,022.7,000.0,032.0,025.3,011.1,0000.0,0002.34,0007.58,0001.77
2024-05-22 10:51:00,SystemResetWarning,0828.9,5.01,000.00,023.5,022.7,000.0,032.0,025.2,011.3,0000.0,0002.27,0007.38,0001.75
2024-05-22 10:52:00,SystemResetWarning,0828.9,5.00,000.00,023.5,022.7,000.0,032.0,025.2,011.7,0000.0,0002.21,0007.19,0001.73
2024-05-22 10:53:00,SystemResetWarning,0828.8,4.99,000.00,023.5,022.6,000.0,032.0,025.2,011.8,0000.0,0002.14,0006.96,0001.70
2024-05-22 10:54:00,SystemResetWarning,0828.8,5.00,000.00,023.5,022.6,000.0,032.0,025.2,011.8,0000.0,0002.13,0006.71,0001.70
2024-05-22 10:55:00,SystemResetWarning,0828.8,4.99,000.00,023.5,022.6,000.0,032.0,025.2,011.7,0000.0,0002.10,0005.57,0001.70
2024-05-22 10:56:00,SystemResetWarning,0828.8,5.00,000.00,023.5,022.6,000.0,032.0,025.1,011.7,0000.0,0002.11,0006.08,0001.70
2024-05-22 10:57:00,SystemResetWarning,0828.8,5.00,000.00,023.4,022.6,000.0,032.0,025.2,011.4,0000.0,0002.10,0006.04,0001.72
2024-05-22 10:58:00,SystemResetWarning,0828.8,5.01,000.00,023.4,022.6,000.0,032.0,025.1,012.0,0000.0,0002.13,0004.59,0001.72
2024-05-22 10:59:00,SystemResetWarning,0828.8,5.01,000.00,023.4,022.6,000.0,031.9,025.1,012.2,0000.0,0002.16,0004.13,0001.72
